Location: Ladrillo (historical)
(32.8195°N, 117.2231°W)
Time: 21:17:01
(UTC+00:00)

Tiangong - Pass Details

Date: 29 September 2021
Orbit: 382 x 385 km, 41.5° (Epoch: 18 October)

Event Time Altitude Azimuth Distance (km) Brightness Sun altitude
Exits shadow 11:50:59 21° 27° (NNE) 912 3.3 -24.0°
Drops below altitude 10° 11:52:26 10° 46° (NE) 1,396 4.7 -23.7°
Sets 11:54:44 0° 57° (ENE) 2,288 6.2 -23.2°
